User: anonymous   Login
Location: Unspecified
(0.0000°N, 0.0000°E)
Time: 22:42:47
(UTC+00:00)
Language:

RAINCUBE - Orbit

View from above orbital plane
View from above orbital plane
View from above satellite
View from above satellite

Ground track
Ground track

The orbit data is extracted from the following two-line orbital elements,

1 43548U 98067NW  19047.04870831  .00009669  00000-0  13068-3 0  9997
2 43548  51.6361 239.4808 0005525  40.6622 319.4782 15.58464161 33932
Epoch (UTC): 16 February 2019 01:10:08
Eccentricity: 0.0005525
inclination: 51.6361°
perigee height: 388 km
apogee height: 396 km
right ascension of ascending node: 239.4808°
argument of perigee: 40.6622°
revolutions per day: 15.58464161
mean anomaly at epoch: 319.4782°
orbit number at epoch: 3393

The dashed part of the orbit path shows where the satellite is in the earth's shadow,  

DLR